EB2EMZ-15 Weather Reports


time (UTC)temp
C
wind
direction
speed
KPH
gust
KPH
rain 1hr
cm
rain 24hr
cm
rain mn
cm
humidity
%
barometer
mb
20260506175019 14 158 0.0 3.2 0.00 0.00 0.00 75 993.3
20260506174016 14 165 0.0 3.2 0.00 0.00 0.00 75 993.3
20260506173512 15 158 0.0 1.6 0.00 0.00 0.00 75 993.3
20260506173016 15 180 0.0 0.0 0.00 0.00 0.00 75 993.4
20260506172512 15 158 0.0 0.0 0.00 0.00 0.00 75 993.4
20260506172016 15 338 0.0 0.0 0.00 0.00 0.00 75 993.4
20260506171512 15 338 0.0 0.0 0.00 0.00 0.00 75 993.4
20260506171017 15 119 0.0 0.0 0.00 0.00 0.00 75 993.4
20260506170513 15 338 0.0 0.0 0.00 0.00 0.00 75 993.3
20260506170012 15 159 0.0 3.2 0.00 0.00 0.00 75 993.4
20260506165513 15 158 0.0 0.0 0.00 0.00 0.00 76 993.4
20260506165016 15 179 0.0 3.2 0.00 0.00 0.00 77 993.4
20260506164513 15 158 0.0 0.0 0.00 0.00 0.00 78 993.5
20260506164016 14 276 0.0 0.0 0.00 0.00 0.00 79 993.6
20260506163513 14 158 0.0 0.0 0.00 0.00 0.00 79 993.4
20260506163014 14 162 0.0 1.6 0.00 0.00 0.00 79 993.5
20260506162512 13 223 0.0 4.8 0.00 0.00 0.00 80 993.5
20260506162016 13 166 0.0 4.8 0.00 0.00 0.00 80 993.6
20260506161513 13 158 0.0 1.6 0.00 0.00 0.00 79 993.7
20260506161017 13 158 0.0 0.0 0.00 0.00 0.00 79 993.7
20260506160513 14 158 0.0 0.0 0.00 0.00 0.00 78 993.8
20260506160013 14 338 0.0 0.0 0.00 0.00 0.00 77 993.8
20260506155512 14 337 0.0 0.0 0.00 0.00 0.00 77 993.7
20260506155016 14 158 0.0 0.0 0.00 0.00 0.00 76 993.8
20260506154512 15 162 0.0 1.6 0.00 0.00 0.00 76 993.8
20260506154016 15 158 0.0 4.8 0.00 0.00 0.00 75 993.8
20260506153513 15 166 0.0 4.8 0.00 0.00 0.00 75 993.8
20260506153015 15 158 1.6 8.0 0.00 0.00 0.00 74 993.7
20260506152513 15 159 0.0 3.2 0.00 0.00 0.00 74 993.8
20260506152015 15 158 0.0 3.2 0.00 0.00 0.00 73 993.8
20260506151513 16 158 0.0 3.2 0.00 0.00 0.00 73 993.9
20260506151016 16 163 0.0 0.0 0.00 0.00 0.00 72 993.8
20260506150512 16 158 0.0 0.0 0.00 0.00 0.00 71 993.8
20260506150013 16 158 0.0 0.0 0.00 0.00 0.00 70 993.7
20260506145512 16 112 0.0 0.0 0.00 0.00 0.00 70 993.9
20260506145016 16 112 0.0 0.0 0.00 0.00 0.00 70 993.8
20260506144512 16 112 0.0 0.0 0.00 0.00 0.00 70 993.8
20260506144014 16 112 0.0 0.0 0.00 0.00 0.00 69 993.9
20260506143512 17 112 0.0 0.0 0.00 0.00 0.00 69 993.9
20260506143017 17 112 0.0 0.0 0.00 0.00 0.00 69 993.9
20260506142512 17 112 0.0 0.0 0.00 0.00 0.00 69 994.0
20260506142016 17 112 0.0 0.0 0.00 0.00 0.00 69 994.0
20260506141512 17 112 0.0 0.0 0.00 0.00 0.00 70 994.1
20260506141015 16 135 0.0 0.0 0.00 0.00 0.00 70 994.1
20260506140512 16 135 0.0 0.0 0.00 0.00 0.00 70 994.2
20260506140013 16 135 0.0 0.0 0.00 0.00 0.00 70 994.3
20260506135512 16 135 0.0 0.0 0.00 0.00 0.00 70 994.4
20260506135016 16 135 0.0 0.0 0.00 0.00 0.00 70 994.4
20260506134512 16 135 0.0 0.0 0.00 0.00 0.00 69 994.4
20260506134016 16 135 0.0 0.0 0.00 0.00 0.00 68 994.3
20260506133512 16 135 0.0 0.0 0.00 0.00 0.00 67 994.3
20260506133015 16 42 0.0 0.0 0.00 0.00 0.00 65 994.3
20260506132512 16 124 0.0 0.0 0.00 0.00 0.00 64 994.2
20260506132015 16 338 0.0 0.0 0.00 0.00 0.00 64 994.0
20260506131512 16 338 0.0 0.0 0.00 0.00 0.00 64 994.0
20260506131016 16 338 0.0 0.0 0.00 0.00 0.00 64 993.9
20260506130512 16 338 0.0 0.0 0.00 0.00 0.00 63 993.9
20260506130012 16 338 0.0 0.0 0.00 0.00 0.00 63 993.8
20260506125512 17 338 0.0 0.0 0.00 0.00 0.00 63 993.8
20260506125015 17 338 0.0 0.0 0.00 0.00 0.00 62 993.9
20260506124512 17 338 0.0 0.0 0.00 0.00 0.00 62 993.7
20260506124015 17 338 0.0 0.0 0.00 0.00 0.00 61 993.8
20260506123512 17 322 0.0 0.0 0.00 0.00 0.00 60 993.7
20260506123016 18 180 0.0 0.0 0.00 0.00 0.00 59 993.6
20260506122512 18 84 0.0 0.0 0.00 0.00 0.00 60 993.6
20260506122018 18 125 0.0 0.0 0.00 0.00 0.00 60 993.6
20260506121511 18 112 0.0 0.0 0.00 0.00 0.00 60 993.6
20260506121015 18 0 0.0 0.0 0.00 0.00 0.00 60 993.7
20260506120512 18 158 0.0 0.0 0.00 0.00 0.00 61 993.7
20260506120012 18 158 0.0 0.0 0.00 0.00 0.00 62 993.7
20260506115512 17 158 0.0 0.0 0.00 0.00 0.00 63 993.7
20260506115016 17 158 0.0 0.0 0.00 0.00 0.00 63 993.7
20260506114513 17 108 0.0 0.0 0.00 0.00 0.00 64 993.8
20260506114015 17 0 0.0 0.0 0.00 0.00 0.00 63 993.8
20260506113512 16 0 0.0 0.0 0.00 0.00 0.00 63 993.9
20260506113016 17 87 0.0 0.0 0.00 0.00 0.00 62 994.0
20260506112512 17 124 0.0 0.0 0.00 0.00 0.00 61 993.9
20260506112015 17 31 0.0 0.0 0.00 0.00 0.00 60 993.8
20260506111512 17 158 0.0 0.0 0.00 0.00 0.00 59 993.9
20260506111015 18 342 0.0 0.0 0.00 0.00 0.00 58 993.9
20260506110513 18 104 0.0 1.6 0.00 0.00 0.00 58 993.8
20260506110012 18 176 0.0 0.0 0.00 0.00 0.00 57 993.7
20260506105514 18 0 0.0 0.0 0.00 0.00 0.00 57 993.7
20260506105016 19 135 0.0 0.0 0.00 0.00 0.00 56 993.6
20260506104512 19 338 0.0 0.0 0.00 0.00 0.00 56 993.7
20260506104015 19 353 0.0 0.0 0.00 0.00 0.00 58 993.6
20260506103511 19 0 0.0 0.0 0.00 0.00 0.00 58 993.6
20260506103014 19 158 0.0 0.0 0.00 0.00 0.00 59 993.6
20260506102512 19 338 0.0 0.0 0.00 0.00 0.00 59 993.7
20260506102014 19 0 0.0 0.0 0.00 0.00 0.00 60 993.7
20260506101511 19 135 0.0 0.0 0.00 0.00 0.00 60 993.7
20260506101015 19 135 0.0 0.0 0.00 0.00 0.00 62 993.7
20260506100513 18 135 0.0 0.0 0.00 0.00 0.00 62 993.7
20260506100011 18 135 0.0 0.0 0.00 0.00 0.00 62 993.7
20260506095511 18 112 0.0 0.0 0.00 0.00 0.00 63 993.9
20260506095014 18 112 0.0 0.0 0.00 0.00 0.00 63 993.9
20260506094511 18 104 0.0 0.0 0.00 0.00 0.00 63 993.9
20260506094015 18 90 0.0 0.0 0.00 0.00 0.00 64 993.7
20260506093511 17 90 0.0 0.0 0.00 0.00 0.00 63 993.7
20260506093015 17 90 0.0 0.0 0.00 0.00 0.00 62 993.7
20260506092511 18 90 0.0 0.0 0.00 0.00 0.00 61 993.8
20260506092016 18 90 0.0 0.0 0.00 0.00 0.00 60 993.8
20260506091512 19 135 0.0 0.0 0.00 0.00 0.00 59 993.8
20260506091015 20 90 0.0 0.0 0.00 0.00 0.00 58 993.7
20260506090512 20 90 0.0 0.0 0.00 0.00 0.00 57 993.6
20260506090011 21 90 0.0 0.0 0.00 0.00 0.00 58 993.7
20260506085511 21 90 0.0 0.0 0.00 0.00 0.00 59 993.4
20260506085014 21 68 0.0 0.0 0.00 0.00 0.00 61 993.4
20260506084511 20 68 0.0 0.0 0.00 0.00 0.00 64 993.6
20260506084015 20 68 0.0 0.0 0.00 0.00 0.00 64 993.8
20260506083512 20 68 0.0 0.0 0.00 0.00 0.00 64 993.6
20260506083015 19 68 0.0 0.0 0.00 0.00 0.00 66 993.7
20260506082511 18 68 0.0 0.0 0.00 0.00 0.00 68 993.7
20260506082021 18 68 0.0 0.0 0.00 0.00 0.00 68 993.8
20260506081511 18 68 0.0 0.0 0.00 0.00 0.00 70 993.7
20260506081015 18 45 0.0 0.0 0.00 0.00 0.00 71 993.7
20260506080512 17 45 0.0 0.0 0.00 0.00 0.00 73 993.7
20260506073511 15 22 0.0 0.0 0.00 0.00 0.00 77 993.7
20260506073014 15 22 0.0 0.0 0.00 0.00 0.00 81 993.7
20260506072511 13 68 0.0 0.0 0.00 0.00 0.00 84 993.7
20260506072013 12 68 0.0 0.0 0.00 0.00 0.00 83 993.7
20260506071511 12 68 0.0 0.0 0.00 0.00 0.00 83 993.7
20260506071014 12 68 0.0 0.0 0.00 0.00 0.00 84 993.8
20260506070512 12 68 0.0 0.0 0.00 0.00 0.00 84 993.7
20260506062512 10 112 0.0 0.0 0.00 0.00 0.00 88 993.3
20260506062015 10 112 0.0 0.0 0.00 0.00 0.00 88 993.5
20260506061511 10 112 0.0 0.0 0.00 0.00 0.00 88 993.4
20260506061015 10 112 0.0 0.0 0.00 0.00 0.00 88 993.4
20260506060512 10 112 0.0 0.0 0.00 0.00 0.00 88 993.5
20260506051015 9 112 0.0 0.0 0.00 0.00 0.00 87 993.2
20260506050512 9 112 0.0 0.0 0.00 0.00 0.00 87 993.1
20260506045013 9 112 0.0 0.0 0.00 0.00 0.00 87 993.2
20260506044511 9 112 0.0 0.0 0.00 0.00 0.00 87 993.1
20260506044015 9 112 0.0 0.0 0.00 0.00 0.00 87 993.0
20260506043511 10 112 0.0 0.0 0.00 0.00 0.00 87 993.1
20260506043014 10 112 0.0 0.0 0.00 0.00 0.00 87 993.2
20260506042511 10 112 0.0 0.0 0.00 0.00 0.00 88 993.1
20260506042014 10 112 0.0 0.0 0.00 0.00 0.00 88 993.2
20260506041511 10 112 0.0 0.0 0.00 0.00 0.00 87 993.2
20260506041015 10 112 0.0 0.0 0.00 0.00 0.00 87 993.1
20260506040511 10 112 0.0 0.0 0.00 0.00 0.00 87 993.2
20260506040012 10 112 0.0 0.0 0.00 0.00 0.00 87 993.3
20260506035512 10 112 0.0 0.0 0.00 0.00 0.00 87 993.2
20260506035014 9 112 0.0 0.0 0.00 0.00 0.00 87 993.2
20260506034511 9 112 0.0 0.0 0.00 0.00 0.00 87 993.2
20260506034015 9 112 0.0 0.0 0.00 0.00 0.00 87 993.2
20260506033511 9 112 0.0 0.0 0.00 0.00 0.00 87 993.3
20260506033014 9 112 0.0 0.0 0.00 0.00 0.00 87 993.3
20260506032511 9 112 0.0 0.0 0.00 0.00 0.00 87 993.3
20260506032015 9 112 0.0 0.0 0.00 0.00 0.00 87 993.3
20260506031511 9 112 0.0 0.0 0.00 0.00 0.00 87 993.3
20260506031015 10 112 0.0 0.0 0.00 0.00 0.00 87 993.2
20260506030511 10 112 0.0 0.0 0.00 0.00 0.00 87 993.2
20260506030011 10 112 0.0 0.0 0.00 0.00 0.00 87 993.3
20260506025511 10 112 0.0 0.0 0.00 0.00 0.00 87 993.2
20260506025014 10 112 0.0 0.0 0.00 0.00 0.00 86 993.2
20260506024511 10 112 0.0 0.0 0.00 0.00 0.00 86 993.3
20260506024015 10 112 0.0 0.0 0.00 0.00 0.00 86 993.2
20260506023511 10 112 0.0 0.0 0.00 0.00 0.00 86 993.0
20260506023015 10 112 0.0 0.0 0.00 0.00 0.00 86 993.5
20260506022511 10 112 0.0 0.0 0.00 0.00 0.00 86 993.5
20260506022015 10 112 0.0 0.0 0.00 0.00 0.00 86 993.4
20260506021511 10 112 0.0 0.0 0.00 0.00 0.00 86 993.5
20260506021013 10 112 0.0 0.0 0.00 0.00 0.00 86 993.4
20260506020512 10 112 0.0 0.0 0.00 0.00 0.00 86 993.6
20260506020011 10 112 0.0 0.0 0.00 0.00 0.00 86 993.4
20260506015511 10 112 0.0 0.0 0.00 0.00 0.00 86 993.6
20260506015013 10 112 0.0 0.0 0.00 0.00 0.00 86 993.7
20260506014511 10 112 0.0 0.0 0.00 0.00 0.00 86 993.7
20260506014015 10 112 0.0 0.0 0.00 0.00 0.00 86 993.6
20260506013511 10 112 0.0 0.0 0.00 0.00 0.00 86 993.6
20260506013014 10 112 0.0 0.0 0.00 0.00 0.00 86 993.6
20260506012510 10 112 0.0 0.0 0.00 0.00 0.00 86 993.6
20260506012014 10 112 0.0 0.0 0.00 0.00 0.00 86 993.6
20260506011510 10 112 0.0 0.0 0.00 0.00 0.00 86 993.5
20260506011015 10 112 0.0 0.0 0.00 0.00 0.00 86 993.7
20260506010511 10 112 0.0 0.0 0.00 0.00 0.00 86 993.6
20260506010011 10 90 0.0 0.0 0.00 0.00 0.00 86 993.8
20260506005511 10 90 0.0 0.0 0.00 0.00 0.00 86 993.7
20260506005014 10 90 0.0 0.0 0.00 0.00 0.00 86 993.8
20260506004511 10 90 0.0 0.0 0.00 0.00 0.00 86 993.8
20260506004014 10 90 0.0 0.0 0.00 0.00 0.00 86 994.0
20260506003511 10 90 0.0 0.0 0.00 0.00 0.00 86 994.0
20260506003014 10 90 0.0 0.0 0.00 0.00 0.00 86 994.0
20260506002511 10 90 0.0 0.0 0.00 0.00 0.00 86 994.1
20260506002013 10 90 0.0 0.0 0.00 0.00 0.00 86 994.1
20260506001510 10 90 0.0 0.0 0.00 0.00 0.00 86 994.0
20260506001013 10 90 0.0 0.0 0.00 0.00 0.00 86 994.1
20260506000511 10 90 0.0 0.0 0.00 0.00 0.00 86 994.0
20260506000010 10 90 0.0 0.0 0.00 0.00 0.00 86 994.0
20260505235510 10 90 0.0 0.0 0.00 0.00 0.00 86 993.9
20260505235013 10 90 0.0 0.0 0.00 0.00 0.00 86 994.1
20260505234511 10 90 0.0 0.0 0.00 0.00 0.00 86 994.0
20260505234013 10 90 0.0 0.0 0.00 0.00 0.00 86 994.0
20260505233510 10 90 0.0 0.0 0.00 0.00 0.00 86 994.1
20260505233013 10 90 0.0 0.0 0.00 0.00 0.00 86 994.1
20260505232510 10 90 0.0 0.0 0.00 0.00 0.00 86 994.0
20260505232013 10 90 0.0 0.0 0.00 0.00 0.00 86 994.1
20260505231511 10 90 0.0 0.0 0.00 0.00 0.00 86 994.1
20260505231013 10 90 0.0 0.0 0.00 0.00 0.00 86 994.0
20260505230510 10 90 0.0 0.0 0.00 0.00 0.00 86 994.1
20260505225511 10 90 0.0 0.0 0.00 0.00 0.00 86 994.2
20260505225014 10 90 0.0 0.0 0.00 0.00 0.00 86 994.0
20260505224510 10 90 0.0 0.0 0.00 0.00 0.00 86 994.1
20260505224014 10 90 0.0 0.0 0.00 0.00 0.00 86 994.1
20260505223511 10 90 0.0 0.0 0.00 0.00 0.00 86 994.3
20260505223014 10 90 0.0 0.0 0.00 0.00 0.00 86 994.3
20260505222511 10 90 0.0 0.0 0.00 0.00 0.00 86 994.3
20260505222013 10 90 0.0 0.0 0.00 0.00 0.00 86 994.3
20260505221511 10 90 0.0 0.0 0.00 0.00 0.00 86 994.3
20260505221013 10 90 0.0 0.0 0.00 0.00 0.00 86 994.3
20260505220510 10 90 0.0 0.0 0.00 0.00 0.00 85 994.2
20260505220010 10 90 0.0 0.0 0.00 0.00 0.00 86 994.3
20260505215510 10 90 0.0 0.0 0.00 0.00 0.00 85 994.3
20260505215013 10 90 0.0 0.0 0.00 0.00 0.00 85 994.4
20260505214510 10 90 0.0 0.0 0.00 0.00 0.00 85 994.4
20260505214014 10 90 0.0 0.0 0.00 0.00 0.00 85 994.3
20260505213510 10 90 0.0 0.0 0.00 0.00 0.00 85 994.4
20260505213012 10 90 0.0 0.0 0.00 0.00 0.00 85 994.3
20260505212510 10 90 0.0 0.0 0.00 0.00 0.00 85 994.4
20260505212014 11 90 0.0 0.0 0.00 0.00 0.00 85 994.5
20260505211511 11 90 0.0 0.0 0.00 0.00 0.00 84 994.6
20260505211013 11 90 0.0 0.0 0.00 0.00 0.00 84 994.5
20260505210511 11 90 0.0 0.0 0.00 0.00 0.00 84 994.5
20260505210010 11 90 0.0 0.0 0.00 0.00 0.00 84 994.4
20260505205510 11 90 0.0 0.0 0.00 0.00 0.00 84 994.4
20260505205015 11 90 0.0 0.0 0.00 0.00 0.00 84 994.4
20260505204510 11 90 0.0 0.0 0.00 0.00 0.00 83 994.2
20260505204013 11 90 0.0 0.0 0.00 0.00 0.00 83 994.3
20260505203510 11 90 0.0 0.0 0.00 0.00 0.00 83 994.4
20260505203013 11 112 0.0 0.0 0.00 0.00 0.00 83 994.4
20260505202510 11 112 0.0 0.0 0.00 0.00 0.00 83 994.3
20260505202013 11 112 0.0 0.0 0.00 0.00 0.00 83 994.2
20260505201510 11 112 0.0 0.0 0.00 0.00 0.00 83 994.0
20260505201014 11 112 0.0 0.0 0.00 0.00 0.00 82 994.2
20260505200510 12 112 0.0 0.0 0.00 0.00 0.00 82 994.1
20260505200010 12 112 0.0 0.0 0.00 0.00 0.00 82 994.0
20260505195510 12 112 0.0 0.0 0.00 0.00 0.00 81 994.0
20260505195014 12 112 0.0 0.0 0.00 0.00 0.00 81 994.0
20260505194510 12 112 0.0 0.0 0.00 0.00 0.00 81 993.9
20260505194012 12 112 0.0 0.0 0.00 0.00 0.00 81 993.8
20260505193510 12 112 0.0 0.0 0.00 0.00 0.00 81 993.7
20260505193013 12 112 0.0 0.0 0.00 0.00 0.00 80 993.8
20260505192510 12 112 0.0 0.0 0.00 0.00 0.00 80 993.9
20260505192014 12 112 0.0 0.0 0.00 0.00 0.00 80 993.7
20260505191510 12 112 0.0 0.0 0.00 0.00 0.00 79 993.7
20260505191013 12 112 0.0 0.0 0.00 0.00 0.00 79 993.7
20260505190510 13 112 0.0 0.0 0.00 0.00 0.00 79 993.6
20260505190009 13 112 0.0 0.0 0.00 0.00 0.00 79 993.7
20260505185510 13 112 0.0 0.0 0.00 0.00 0.00 78 993.7
20260505185013 13 112 0.0 0.0 0.00 0.00 0.00 78 993.7
20260505184510 13 112 0.0 0.0 0.00 0.00 0.00 78 993.6
20260505184013 13 112 0.0 0.0 0.00 0.00 0.00 77 993.6
20260505183510 13 112 0.0 0.0 0.00 0.00 0.00 77 993.6
20260505183016 13 112 0.0 0.0 0.00 0.00 0.00 77 993.6
20260505182509 13 112 0.0 0.0 0.00 0.00 0.00 76 993.4
20260505182013 13 112 0.0 0.0 0.00 0.00 0.00 76 993.4
20260505181509 14 112 0.0 0.0 0.00 0.00 0.00 76 993.6
20260505181014 14 112 0.0 0.0 0.00 0.00 0.00 76 993.4
20260505180510 14 112 0.0 0.0 0.00 0.00 0.00 75 993.6
20260505180009 14 112 0.0 0.0 0.00 0.00 0.00 75 993.6
20260505175510 14 112 0.0 0.0 0.00 0.00 0.00 75 993.6